Weather History for Fort Huachuca, AZ

Change the Weather History Date:

Sunday, February 17, 2013

  Actual Average (KFHU) Record (KFHU)
Temperature  
Mean Temperature 52 °F -  
Max Temperature 66 °F 60 °F 79 °F (2014)
Min Temperature 37 °F 40 °F 16 °F (1990)
Degree Days  
Heating Degree Days 14    
Growing Degree Days 2 (Base 50)    
Moisture  
Dew Point 5 °F    
Average Humidity 15    
Maximum Humidity 28    
Minimum Humidity 8    
Precipitation  
Precipitation 0.00 in - - ()
Sea Level Pressure  
Sea Level Pressure 29.85 in    
Wind  
Wind Speed 9 mph (WSW)    
Max Wind Speed 25 mph    
Max Gust Speed 32 mph    
Averages and records for this station are not official NWS values.
T = Trace of Precipitation, MM = Missing Value Source: NWS Daily Summary

Daily Weather History Graph

Daily Weather History Graph

Search for Another Location

Airport:

Trip Planner

Search our weather history database for the weather conditions in past years. The results will help you decide how hot, cold, wet, or windy it might be!

Date:

Astronomy

Feb. 17, 2013 Rise Set
Actual Time 7:01 AM MST 6:10 PM MST
Civil Twilight 6:36 AM MST 6:35 PM MST
Nautical Twilight 6:07 AM MST 7:03 PM MST
Astronomical Twilight 5:39 AM MST 7:32 PM MST
Moon 11:25 AM MST (2/17) 12:40 AM MST (2/17)
Length of Visible Light 11h 58m
Length of Day
11h 09m
Waxing Crescent, 49% of the Moon is Illuminated
Feb 17
Waxing Crescent
Feb 17
First Quarter
Feb 25
Full
Mar 4
Last Quarter
Mar 11
New

Hourly Weather History & Observations

Time (MST) Temp. Windchill Dew Point Humidity Pressure Visibility Wind Dir Wind Speed Gust Speed Precip Events Conditions
12:56 AM 37.9 °F 33.5 °F 7.0 °F 28% 29.96 in - West 5.8 mph - N/A   Clear
1:56 AM 42.1 °F 37.7 °F 3.9 °F 21% 29.94 in - WSW 6.9 mph - N/A   Clear
2:56 AM 39.9 °F 34.5 °F 3.9 °F 22% 29.91 in - WSW 8.1 mph - N/A   Clear
3:56 AM 42.1 °F - 3.9 °F 21% 29.88 in - Calm Calm - N/A   Clear
4:56 AM 43.0 °F 40.3 °F 3.0 °F 19% 29.88 in - SW 4.6 mph - N/A   Clear
5:56 AM 44.1 °F 42.5 °F 3.0 °F 18% 29.89 in - WSW 3.5 mph - N/A   Clear
6:56 AM 45.0 °F 43.5 °F 1.9 °F 17% 29.89 in - WSW 3.5 mph - N/A   Clear
7:56 AM 45.0 °F 41.8 °F 5.0 °F 19% 29.90 in - West 5.8 mph - N/A   Clear
8:56 AM 52.0 °F - 5.0 °F 15% 29.88 in - WNW 3.5 mph - N/A   Clear
9:56 AM 61.0 °F - 6.1 °F 11% 29.85 in - WSW 16.1 mph 23.0 mph N/A   Clear
10:56 AM 63.0 °F - 8.1 °F 11% 29.84 in - SW 13.8 mph 23.0 mph N/A   Clear
11:56 AM 64.9 °F - 7.0 °F 10% 29.83 in - SW 15.0 mph 26.5 mph N/A   Clear
12:56 PM 66.0 °F - 1.9 °F 8% 29.81 in - West 18.4 mph 27.6 mph N/A   Clear
1:56 PM 66.0 °F - 5.0 °F 9% 29.77 in - West 19.6 mph 27.6 mph N/A   Clear
2:56 PM 64.9 °F - 7.0 °F 10% 29.77 in - WSW 16.1 mph 32.2 mph N/A   Clear
3:56 PM 64.0 °F - 3.0 °F 9% 29.77 in - West 25.3 mph 31.1 mph N/A   Clear
4:56 PM 60.1 °F - 1.9 °F 10% 29.78 in - West 18.4 mph - N/A   Clear
5:56 PM 57.0 °F - 3.9 °F 12% 29.81 in - WSW 19.6 mph - N/A   Clear
6:56 PM - - - N/A% - - North - - N/A   Unknown
7:56 PM 52.0 °F - 1.9 °F 13% 29.83 in - SW 17.3 mph - N/A   Clear
8:56 PM 50.0 °F - 5.0 °F 16% 29.84 in - WSW 16.1 mph - N/A   Clear
10:56 PM 48.0 °F - 7.0 °F 19% 29.84 in - WSW 11.5 mph - N/A   Clear
11:56 PM 46.9 °F - 10.0 °F 22% 29.85 in - SW 13.8 mph - N/A   Clear